Time,TemperatureF,DewpointF,PressureIn,WindDirection,WindDirectionDegrees,WindSpeedMPH,WindSpeedGustMPH,Humidity,HourlyPrecipIn,Conditions,Clouds,dailyrainin,SolarRadiationWatts/m^2,SoftwareType,DateUTC
2013-02-15 00:00:00,48.2,38.5,30.20,NE,45,0.0,2.0,69,0.00,,BKN250,0.00,0.00,VWS V14.01,2013-02-15 08:00:00,
2013-02-15 00:10:00,47.7,38.8,30.21,NE,45,0.0,1.0,71,0.00,,BKN250,0.00,0.00,VWS V14.01,2013-02-15 08:10:00,
2013-02-15 00:20:00,46.9,38.0,30.21,NE,45,0.0,2.0,71,0.00,,BKN250,0.00,0.00,VWS V14.01,2013-02-15 08:20:00,
2013-02-15 00:30:00,46.6,37.7,30.21,NE,45,0.0,2.0,71,0.00,,BKN250,0.00,0.00,VWS V14.01,2013-02-15 08:30:00,
2013-02-15 00:40:00,46.3,38.1,30.21,NE,45,0.0,1.0,73,0.00,,BKN250,0.00,0.00,VWS V14.01,2013-02-15 08:40:00,
2013-02-15 00:50:00,46.4,37.5,30.21,NE,45,0.0,3.0,71,0.00,,BKN250,0.00,0.00,VWS V14.01,2013-02-15 08:50:00,
2013-02-15 01:00:00,46.8,37.5,30.21,NE,45,0.0,2.0,70,0.00,,BKN250,0.00,0.00,VWS V14.01,2013-02-15 09:00:00,
2013-02-15 01:10:00,46.6,37.3,30.21,NE,45,0.0,3.0,70,0.00,,BKN250,0.00,0.00,VWS V14.01,2013-02-15 09:10:00,
2013-02-15 01:20:00,45.8,38.0,30.21,NNE,22,1.0,4.0,74,0.00,,BKN250,0.00,0.00,VWS V14.01,2013-02-15 09:20:00,
2013-02-15 01:30:00,45.6,37.5,30.21,North,0,0.0,3.0,73,0.00,,BKN250,0.00,0.00,VWS V14.01,2013-02-15 09:30:00,
2013-02-15 01:40:00,45.0,37.2,30.21,North,0,0.0,0.0,74,0.00,,BKN250,0.00,0.00,VWS V14.01,2013-02-15 09:40:00,
2013-02-15 01:50:00,44.4,37.3,30.21,North,0,0.0,1.0,76,0.00,,BKN250,0.00,0.00,VWS V14.01,2013-02-15 09:50:00,
2013-02-15 02:00:00,44.4,36.7,30.21,North,0,0.0,0.0,74,0.00,,BKN250,0.00,0.00,VWS V14.01,2013-02-15 10:00:00,
2013-02-15 02:10:00,44.6,36.8,30.21,North,0,0.0,3.0,74,0.00,,BKN250,0.00,0.00,VWS V14.01,2013-02-15 10:10:00,
2013-02-15 02:20:00,45.0,36.9,30.21,North,0,0.0,2.0,73,0.00,,BKN250,0.00,0.00,VWS V14.01,2013-02-15 10:20:00,
2013-02-15 02:30:00,45.0,36.9,30.21,North,0,0.0,1.0,73,0.00,,BKN250,0.00,0.00,VWS V14.01,2013-02-15 10:30:00,
2013-02-15 02:40:00,45.0,36.9,30.21,North,0,1.0,3.0,73,0.00,,BKN250,0.00,0.00,VWS V14.01,2013-02-15 10:40:00,
2013-02-15 02:50:00,45.3,36.8,30.21,North,0,0.0,3.0,72,0.00,,BKN250,0.00,0.00,VWS V14.01,2013-02-15 10:50:00,
2013-02-15 03:00:00,45.4,36.9,30.21,North,0,0.0,0.0,72,0.00,,BKN250,0.00,0.00,VWS V14.01,2013-02-15 11:00:00,
2013-02-15 03:10:00,45.0,36.5,30.20,North,0,0.0,2.0,72,0.00,,BKN250,0.00,0.00,VWS V14.01,2013-02-15 11:10:00,
2013-02-15 03:20:00,45.0,36.9,30.20,North,0,0.0,3.0,73,0.00,,BKN250,0.00,0.00,VWS V14.01,2013-02-15 11:20:00,
2013-02-15 03:30:00,45.6,37.1,30.20,North,0,0.0,2.0,72,0.00,,BKN250,0.00,0.00,VWS V14.01,2013-02-15 11:30:00,
2013-02-15 03:40:00,46.3,37.8,30.20,NW,315,2.0,9.0,72,0.00,,BKN250,0.00,0.00,VWS V14.01,2013-02-15 11:40:00,
2013-02-15 03:50:00,47.2,38.3,30.20,NNW,338,2.0,7.0,71,0.00,,BKN250,0.00,0.00,VWS V14.01,2013-02-15 11:50:00,
2013-02-15 04:00:00,47.2,38.3,30.20,NW,315,3.0,10.0,71,0.00,,BKN250,0.00,0.00,VWS V14.01,2013-02-15 12:00:00,
2013-02-15 04:10:00,48.3,38.2,30.20,NNW,338,2.0,9.0,68,0.00,,BKN250,0.00,0.00,VWS V14.01,2013-02-15 12:10:00,
2013-02-15 04:20:00,48.0,38.0,30.20,NNW,338,2.0,7.0,68,0.00,,BKN250,0.00,0.00,VWS V14.01,2013-02-15 12:20:00,
2013-02-15 04:30:00,47.8,37.8,30.20,NNW,338,1.0,4.0,68,0.00,,BKN250,0.00,0.00,VWS V14.01,2013-02-15 12:30:00,
2013-02-15 04:40:00,47.1,37.5,30.20,NW,315,2.0,6.0,69,0.00,,BKN250,0.00,0.00,VWS V14.01,2013-02-15 12:40:00,
2013-02-15 04:50:00,47.8,37.8,30.21,NW,315,3.0,11.0,68,0.00,,BKN250,0.00,0.00,VWS V14.01,2013-02-15 12:50:00,
2013-02-15 05:00:00,48.1,37.7,30.21,WNW,292,3.0,11.0,67,0.00,,BKN250,0.00,0.00,VWS V14.01,2013-02-15 13:00:00,
2013-02-15 05:10:00,48.4,37.6,30.21,NW,315,4.0,15.0,66,0.00,,BKN250,0.00,0.00,VWS V14.01,2013-02-15 13:10:00,
2013-02-15 05:20:00,49.2,37.6,30.21,NNW,338,5.0,13.0,64,0.00,,BKN250,0.00,0.00,VWS V14.01,2013-02-15 13:20:00,
2013-02-15 05:30:00,49.7,37.2,30.21,NNW,338,5.0,16.0,62,0.00,,BKN250,0.00,0.00,VWS V14.01,2013-02-15 13:30:00,
2013-02-15 05:40:00,49.6,36.7,30.22,North,0,7.0,17.0,61,0.00,,BKN250,0.00,0.00,VWS V14.01,2013-02-15 13:40:00,
2013-02-15 05:50:00,49.6,36.7,30.22,North,0,8.0,16.0,61,0.00,,BKN250,0.00,0.00,VWS V14.01,2013-02-15 13:50:00,
2013-02-15 06:00:00,49.6,36.3,30.22,NNW,338,7.0,16.0,60,0.00,,BKN250,0.00,0.00,VWS V14.01,2013-02-15 14:00:00,
2013-02-15 06:10:00,49.4,36.5,30.22,NNW,338,3.0,11.0,61,0.00,,BKN250,0.00,0.00,VWS V14.01,2013-02-15 14:10:00,
2013-02-15 06:20:00,48.8,36.4,30.22,NW,315,3.0,12.0,62,0.00,,BKN250,0.00,0.00,VWS V14.01,2013-02-15 14:20:00,
2013-02-15 06:30:00,49.0,35.7,30.22,NW,315,4.0,11.0,60,0.00,,,0.00,0.00,VWS V14.01,2013-02-15 14:30:00,
2013-02-15 06:40:00,49.5,35.8,30.22,NNW,338,4.0,11.0,59,0.00,,BKN250,0.00,0.00,VWS V14.01,2013-02-15 14:40:00,
2013-02-15 06:57:00,47.2,35.7,30.22,WNW,297,0.0,4.0,64,0.00,,BKN250,0.00,0.00,VWS V14.01,2013-02-15 14:57:00,
2013-02-15 07:00:00,47.2,35.7,30.22,WNW,297,0.0,4.0,64,0.00,,,0.00,0.00,VWS V14.01,2013-02-15 15:00:00,
2013-02-15 07:10:00,46.3,35.2,30.22,NW,315,3.0,11.0,65,0.00,,,0.00,4.00,VWS V14.01,2013-02-15 15:10:00,
2013-02-15 07:20:00,46.1,35.4,30.22,WNW,292,2.0,7.0,66,0.00,,,0.00,10.00,VWS V14.01,2013-02-15 15:20:00,
2013-02-15 07:30:00,46.0,35.3,30.23,WNW,292,2.0,9.0,66,0.00,,,0.00,15.00,VWS V14.01,2013-02-15 15:30:00,
2013-02-15 07:40:00,45.9,35.6,30.23,NW,315,1.0,7.0,67,0.00,,,0.00,19.00,VWS V14.01,2013-02-15 15:40:00,
2013-02-15 07:50:00,45.6,35.3,30.23,NNW,338,2.0,6.0,67,0.00,,,0.00,23.00,VWS V14.01,2013-02-15 15:50:00,
2013-02-15 08:00:00,46.2,35.5,30.24,NNW,338,2.0,7.0,66,0.00,,,0.00,28.00,VWS V14.01,2013-02-15 16:00:00,
2013-02-15 08:10:00,48.2,36.2,30.24,NW,315,4.0,13.0,63,0.00,,,0.00,81.00,VWS V14.01,2013-02-15 16:10:00,
2013-02-15 08:20:00,49.6,35.9,30.24,NNW,338,5.0,14.0,59,0.00,,,0.00,188.00,VWS V14.01,2013-02-15 16:20:00,
2013-02-15 08:30:00,50.4,36.2,30.24,NNW,338,5.0,14.0,58,0.00,,,0.00,218.00,VWS V14.01,2013-02-15 16:30:00,
2013-02-15 08:40:00,51.1,36.0,30.25,NW,315,5.0,13.0,56,0.00,,,0.00,249.00,VWS V14.01,2013-02-15 16:40:00,
2013-02-15 08:50:00,51.4,36.2,30.25,WNW,292,4.0,12.0,56,0.00,,,0.00,279.00,VWS V14.01,2013-02-15 16:50:00,
2013-02-15 09:00:00,51.7,36.5,30.25,NNW,338,5.0,14.0,56,0.00,,,0.00,308.00,VWS V14.01,2013-02-15 17:00:00,
2013-02-15 09:10:00,52.4,36.7,30.25,NW,315,5.0,11.0,55,0.00,,,0.00,338.00,VWS V14.01,2013-02-15 17:10:00,
2013-02-15 09:20:00,53.3,36.6,30.25,NW,315,6.0,13.0,53,0.00,,,0.00,367.00,VWS V14.01,2013-02-15 17:20:00,
2013-02-15 09:30:00,54.1,37.4,30.25,NNW,338,5.0,13.0,53,0.00,,,0.00,394.00,VWS V14.01,2013-02-15 17:30:00,
2013-02-15 09:40:00,54.6,37.3,30.25,NW,315,6.0,15.0,52,0.00,,,0.00,421.00,VWS V14.01,2013-02-15 17:40:00,
2013-02-15 09:50:00,55.2,37.4,30.25,NW,315,5.0,12.0,51,0.00,,,0.00,446.00,VWS V14.01,2013-02-15 17:50:00,
2013-02-15 10:00:00,55.9,38.0,30.25,NNW,338,5.0,12.0,51,0.00,,,0.00,470.00,VWS V14.01,2013-02-15 18:00:00,
2013-02-15 10:10:00,56.9,38.5,30.25,NNW,338,4.0,10.0,50,0.00,,,0.00,493.00,VWS V14.01,2013-02-15 18:10:00,
2013-02-15 10:20:00,57.5,38.0,30.26,NW,315,5.0,12.0,48,0.00,,,0.00,515.00,VWS V14.01,2013-02-15 18:20:00,
2013-02-15 10:30:00,58.2,39.2,30.26,NW,315,5.0,11.0,49,0.00,,,0.00,536.00,VWS V14.01,2013-02-15 18:30:00,
2013-02-15 10:40:00,59.0,37.7,30.26,NW,315,5.0,11.0,45,0.00,,,0.00,555.00,VWS V14.01,2013-02-15 18:40:00,
2013-02-15 10:50:00,59.7,38.9,30.26,NW,315,6.0,12.0,46,0.00,,,0.00,572.00,VWS V14.01,2013-02-15 18:50:00,
2013-02-15 11:00:00,60.7,39.3,30.26,NW,315,5.0,12.0,45,0.00,,,0.00,589.00,VWS V14.01,2013-02-15 19:00:00,
2013-02-15 11:10:00,61.7,39.6,30.26,NW,315,5.0,11.0,44,0.00,,,0.00,603.00,VWS V14.01,2013-02-15 19:10:00,
2013-02-15 11:20:00,62.6,39.2,30.26,NW,315,5.0,11.0,42,0.00,,,0.00,616.00,VWS V14.01,2013-02-15 19:20:00,
2013-02-15 11:30:00,63.5,39.4,30.25,NNW,338,4.0,10.0,41,0.00,,,0.00,627.00,VWS V14.01,2013-02-15 19:30:00,
2013-02-15 11:40:00,64.3,39.5,30.25,NW,315,4.0,9.0,40,0.00,,,0.00,637.00,VWS V14.01,2013-02-15 19:40:00,
2013-02-15 11:50:00,65.2,39.6,30.25,NW,315,4.0,9.0,39,0.00,,,0.00,645.00,VWS V14.01,2013-02-15 19:50:00,
2013-02-15 12:00:00,66.1,41.1,30.25,NW,315,3.0,6.0,40,0.00,,,0.00,651.00,VWS V14.01,2013-02-15 20:00:00,
2013-02-15 12:10:00,67.4,40.9,30.24,NNW,338,2.0,6.0,38,0.00,,,0.00,656.00,VWS V14.01,2013-02-15 20:10:00,
2013-02-15 12:20:00,68.4,41.1,30.24,NW,315,1.0,6.0,37,0.00,,,0.00,660.00,VWS V14.01,2013-02-15 20:20:00,
2013-02-15 12:30:00,69.4,41.3,30.23,NW,315,1.0,4.0,36,0.00,,,0.00,661.00,VWS V14.01,2013-02-15 20:30:00,
2013-02-15 12:40:00,69.8,40.2,30.23,WSW,248,1.0,3.0,34,0.00,,,0.00,662.00,VWS V14.01,2013-02-15 20:40:00,
2013-02-15 12:50:00,70.7,41.7,30.23,WSW,248,0.0,3.0,35,0.00,,,0.00,660.00,VWS V14.01,2013-02-15 20:50:00,
2013-02-15 13:00:00,71.2,39.9,30.22,WSW,248,1.0,4.0,32,0.00,,,0.00,657.00,VWS V14.01,2013-02-15 21:00:00,
2013-02-15 13:10:00,71.3,42.3,30.22,South,180,1.0,6.0,35,0.00,,,0.00,650.00,VWS V14.01,2013-02-15 21:10:00,
2013-02-15 13:20:00,72.0,43.6,30.21,SW,225,1.0,6.0,36,0.00,,,0.00,643.00,VWS V14.01,2013-02-15 21:20:00,
2013-02-15 13:30:00,72.0,43.6,30.21,SSW,202,2.0,6.0,36,0.00,,,0.00,634.00,VWS V14.01,2013-02-15 21:30:00,
2013-02-15 13:40:00,72.8,44.3,30.20,West,270,0.0,4.0,36,0.00,,,0.00,624.00,VWS V14.01,2013-02-15 21:40:00,
2013-02-15 13:50:00,72.8,41.3,30.20,SW,225,2.0,6.0,32,0.00,,,0.00,612.00,VWS V14.01,2013-02-15 21:50:00,
2013-02-15 14:00:00,73.5,41.9,30.20,SW,225,2.0,6.0,32,0.00,,,0.00,598.00,VWS V14.01,2013-02-15 22:00:00,
2013-02-15 14:10:00,73.7,42.8,30.19,SW,225,1.0,5.0,33,0.00,,,0.00,583.00,VWS V14.01,2013-02-15 22:10:00,
2013-02-15 14:20:00,74.3,41.7,30.19,SW,225,1.0,5.0,31,0.00,,,0.00,566.00,VWS V14.01,2013-02-15 22:20:00,
2013-02-15 14:30:00,74.4,41.0,30.19,SSE,158,1.0,5.0,30,0.00,,,0.00,546.00,VWS V14.01,2013-02-15 22:30:00,
2013-02-15 14:40:00,74.4,40.1,30.19,SSE,158,2.0,7.0,29,0.00,,,0.00,527.00,VWS V14.01,2013-02-15 22:40:00,
2013-02-15 14:50:00,74.5,38.4,30.19,ESE,112,2.0,7.0,27,0.00,,,0.00,505.00,VWS V14.01,2013-02-15 22:50:00,
2013-02-15 15:00:00,75.2,39.9,30.19,ESE,112,1.0,6.0,28,0.00,,,0.00,483.00,VWS V14.01,2013-02-15 23:00:00,
2013-02-15 15:10:00,75.4,40.1,30.19,SW,225,3.0,7.0,28,0.00,,,0.00,459.00,VWS V14.01,2013-02-15 23:10:00,
2013-02-15 15:20:00,75.4,40.1,30.19,SW,225,3.0,7.0,28,0.00,,,0.00,435.00,VWS V14.01,2013-02-15 23:20:00,
2013-02-15 15:30:00,74.9,39.6,30.19,SE,135,2.0,7.0,28,0.00,,,0.00,408.00,VWS V14.01,2013-02-15 23:30:00,
2013-02-15 15:40:00,74.7,38.5,30.19,SE,135,2.0,6.0,27,0.00,,,0.00,379.00,VWS V14.01,2013-02-15 23:40:00,
2013-02-15 15:50:00,74.8,38.6,30.19,SE,135,1.0,7.0,27,0.00,,,0.00,351.00,VWS V14.01,2013-02-15 23:50:00,
2013-02-15 16:00:00,75.1,38.9,30.19,SSE,158,1.0,5.0,27,0.00,,,0.00,323.00,VWS V14.01,2013-02-16 00:00:00,
2013-02-15 16:10:00,75.1,39.8,30.19,SE,135,1.0,5.0,28,0.00,,,0.00,293.00,VWS V14.01,2013-02-16 00:10:00,
2013-02-15 16:20:00,75.1,39.8,30.19,SSE,158,0.0,3.0,28,0.00,,,0.00,263.00,VWS V14.01,2013-02-16 00:20:00,
2013-02-15 16:30:00,74.8,39.5,30.19,SE,135,1.0,5.0,28,0.00,,,0.00,233.00,VWS V14.01,2013-02-16 00:30:00,
2013-02-15 16:40:00,74.8,40.5,30.19,SSE,158,1.0,6.0,29,0.00,,,0.00,202.00,VWS V14.01,2013-02-16 00:40:00,
2013-02-15 16:50:00,74.2,40.8,30.19,SSE,158,1.0,5.0,30,0.00,,,0.00,173.00,VWS V14.01,2013-02-16 00:50:00,
2013-02-15 17:00:00,73.4,40.1,30.19,SE,135,1.0,6.0,30,0.00,,,0.00,145.00,VWS V14.01,2013-02-16 01:00:00,
2013-02-15 17:10:00,72.4,43.2,30.19,SE,135,2.0,7.0,35,0.00,,,0.00,116.00,VWS V14.01,2013-02-16 01:10:00,
2013-02-15 17:20:00,71.3,43.0,30.20,SSE,158,2.0,6.0,36,0.00,,,0.00,82.00,VWS V14.01,2013-02-16 01:20:00,
2013-02-15 17:30:00,70.1,44.0,30.19,ESE,112,4.0,11.0,39,0.00,,,0.00,54.00,VWS V14.01,2013-02-16 01:30:00,
2013-02-15 17:40:00,68.8,44.2,30.20,ESE,112,1.0,5.0,41,0.00,,,0.00,24.00,VWS V14.01,2013-02-16 01:40:00,
2013-02-15 17:50:00,67.5,43.6,30.20,ESE,112,0.0,4.0,42,0.00,,,0.00,10.00,VWS V14.01,2013-02-16 01:50:00,
2013-02-15 18:00:00,66.5,43.3,30.20,ESE,112,0.0,1.0,43,0.00,,,0.00,2.00,VWS V14.01,2013-02-16 02:00:00,
2013-02-15 18:10:00,65.4,42.9,30.21,ESE,112,0.0,1.0,44,0.00,,,0.00,0.00,VWS V14.01,2013-02-16 02:10:00,
2013-02-15 18:20:00,62.8,42.8,30.21,ESE,112,0.0,1.0,48,0.00,,,0.00,0.00,VWS V14.01,2013-02-16 02:20:00,
2013-02-15 18:30:00,61.2,42.4,30.21,NNE,22,0.0,3.0,50,0.00,,,0.00,0.00,VWS V14.01,2013-02-16 02:30:00,
2013-02-15 18:40:00,60.0,42.8,30.21,NNE,22,3.0,5.0,53,0.00,,,0.00,0.00,VWS V14.01,2013-02-16 02:40:00,
2013-02-15 18:50:00,58.3,42.7,30.21,NE,45,2.0,4.0,56,0.00,,,0.00,0.00,VWS V14.01,2013-02-16 02:50:00,
2013-02-15 19:00:00,57.2,42.1,30.21,NE,45,0.0,3.0,57,0.00,,,0.00,0.00,VWS V14.01,2013-02-16 03:00:00,
2013-02-15 19:10:00,57.5,41.5,30.21,NE,45,2.0,5.0,55,0.00,,,0.00,0.00,VWS V14.01,2013-02-16 03:10:00,
2013-02-15 19:20:00,57.3,41.8,30.21,NE,45,3.0,4.0,56,0.00,,,0.00,0.00,VWS V14.01,2013-02-16 03:20:00,
2013-02-15 19:30:00,55.6,41.1,30.22,NE,45,2.0,4.0,58,0.00,,,0.00,0.00,VWS V14.01,2013-02-16 03:30:00,
2013-02-15 19:40:00,55.2,42.0,30.22,NE,45,1.0,3.0,61,0.00,,,0.00,0.00,VWS V14.01,2013-02-16 03:40:00,
2013-02-15 19:50:00,54.9,41.7,30.22,NE,45,0.0,1.0,61,0.00,,,0.00,0.00,VWS V14.01,2013-02-16 03:50:00,
2013-02-15 20:00:00,54.9,42.1,30.23,NE,45,0.0,1.0,62,0.00,,,0.00,0.00,VWS V14.01,2013-02-16 04:00:00,
2013-02-15 20:10:00,55.0,42.2,30.22,NE,45,0.0,3.0,62,0.00,,,0.00,0.00,VWS V14.01,2013-02-16 04:10:00,
2013-02-15 20:20:00,55.0,42.2,30.23,NE,45,0.0,1.0,62,0.00,,,0.00,0.00,VWS V14.01,2013-02-16 04:20:00,
2013-02-15 20:30:00,54.5,42.6,30.23,NE,45,0.0,1.0,64,0.00,,,0.00,0.00,VWS V14.01,2013-02-16 04:30:00,
2013-02-15 20:40:00,53.2,42.2,30.23,NE,45,0.0,1.0,66,0.00,,,0.00,0.00,VWS V14.01,2013-02-16 04:40:00,
2013-02-15 20:50:00,53.2,42.2,30.23,NE,45,1.0,3.0,66,0.00,,,0.00,0.00,VWS V14.01,2013-02-16 04:50:00,
2013-02-15 21:00:00,53.2,42.2,30.24,NE,45,0.0,0.0,66,0.00,,,0.00,0.00,VWS V14.01,2013-02-16 05:00:00,
2013-02-15 21:10:00,52.7,41.7,30.24,NE,45,0.0,1.0,66,0.00,,,0.00,0.00,VWS V14.01,2013-02-16 05:10:00,
2013-02-15 21:20:00,52.0,41.0,30.24,NE,45,0.0,1.0,66,0.00,,,0.00,0.00,VWS V14.01,2013-02-16 05:20:00,
2013-02-15 21:30:00,51.6,41.4,30.24,NE,45,0.0,1.0,68,0.00,,,0.00,0.00,VWS V14.01,2013-02-16 05:30:00,
2013-02-15 21:40:00,51.2,41.0,30.24,NE,45,0.0,1.0,68,0.00,,,0.00,0.00,VWS V14.01,2013-02-16 05:40:00,
2013-02-15 21:50:00,50.9,41.1,30.24,NE,45,0.0,0.0,69,0.00,,,0.00,0.00,VWS V14.01,2013-02-16 05:50:00,
2013-02-15 22:00:00,50.4,41.7,30.25,NE,45,0.0,0.0,72,0.00,,,0.00,0.00,VWS V14.01,2013-02-16 06:00:00,
2013-02-15 22:10:00,49.8,40.4,30.25,NE,45,0.0,0.0,70,0.00,,,0.00,0.00,VWS V14.01,2013-02-16 06:10:00,
2013-02-15 22:20:00,49.6,40.2,30.25,NE,45,0.0,0.0,70,0.00,,,0.00,0.00,VWS V14.01,2013-02-16 06:20:00,
2013-02-15 22:30:00,49.4,40.4,30.25,NE,45,0.0,0.0,71,0.00,,,0.00,0.00,VWS V14.01,2013-02-16 06:30:00,
2013-02-15 22:40:00,49.4,40.4,30.25,NE,45,0.0,0.0,71,0.00,,,0.00,0.00,VWS V14.01,2013-02-16 06:40:00,
2013-02-15 22:50:00,49.2,39.8,30.25,NE,45,0.0,1.0,70,0.00,,,0.00,0.00,VWS V14.01,2013-02-16 06:50:00,
2013-02-15 23:00:00,49.0,39.7,30.25,NE,45,0.0,0.0,70,0.00,,,0.00,0.00,VWS V14.01,2013-02-16 07:00:00,
2013-02-15 23:10:00,48.5,39.5,30.25,NE,45,0.0,1.0,71,0.00,,,0.00,0.00,VWS V14.01,2013-02-16 07:10:00,
2013-02-15 23:20:00,48.1,39.5,30.25,NE,45,0.0,0.0,72,0.00,,,0.00,0.00,VWS V14.01,2013-02-16 07:20:00,
2013-02-15 23:30:00,47.7,39.1,30.25,NE,45,0.0,0.0,72,0.00,,,0.00,0.00,VWS V14.01,2013-02-16 07:30:00,
2013-02-15 23:40:00,47.6,39.4,30.25,NE,45,0.0,0.0,73,0.00,,,0.00,0.00,VWS V14.01,2013-02-16 07:40:00,
2013-02-15 23:50:00,47.2,40.0,30.25,NE,45,0.0,1.0,76,0.00,,,0.00,0.00,VWS V14.01,2013-02-16 07:50:00,